Location: Dealu Mare
(46.0500°N, 22.8167°E)
Time: 09:22:54
(UTC+00:00)

Cosmos 2341 Rocket - Pass Details

Date: 15 January 2026
Orbit: 967 x 1004 km, 82.9° (Epoch: 9 February)

Event Time Altitude Azimuth Distance (km) Brightness Sun altitude
Rises 04:54:43 0° 178° (S) 3,712 7.3 -12.3°
Reaches altitude 10° 04:57:15 10° 176° (S) 2,768 6.7 -11.8°
Maximum altitude 05:03:34 70° 94° (E) 1,065 4.4 -10.8°
Drops below altitude 10° 05:09:56 10° 13° (NNE) 2,785 6.3 -9.8°
Sets 05:12:28 0° 11° (N) 3,736 7.0 -9.4°
